Tracking 29892 objects as of 21-Nov-2024
HD Live streaming from Space Station
objects crossing your sky now

FENGYUN 1C DEB

Track FENGYUN 1C DEB now!
10-day predictions


NORAD ID: 29956
Int'l Code: 1999-025KE
Perigee: 841.0 km
Apogee: 919.2 km
Inclination: 98.8 °
Period: 102.4 minutes
Semi major axis: 7251 km
RCS: 0.5103 m2 (medium)
Launch date: May 10, 1999
Source: People's Republic of China (PRC)
Launch site: Taiyaun Space Center, China (TSC)

Note: This is SATELLITE DEBRIS
Your satellite tracking list
Your tracking list is empty




NASA's NSSDC Master Catalog

Two Line Element Set (TLE):
1 29956U 99025KE  24325.02821486  .00000353  00000-0  23818-3 0  9999
2 29956  98.8380 358.1638 0053935  25.7858 347.7562 14.06033556916017
Source of the keplerian elements: AFSPC